When you browse on this site, cookies collect data to enhance your experience and personalize the content and advertising you see.
Visit our Privacy Policy to learn more. By continuing to use the site, you agree to this use of cookies and data.
  • In Hungary
  • List of Countries
  • For 7 days
  • Water Temperature
  • Weather Map
  • News
  • Weather Widgets
  • user-avatar
    Login

    Hourly Weather Alges

    Today, 20 November, Wednesday

    Time Temperature Precipitation Wind Pressure Humidity
    00:00 +13°C° 1.4 mm 5 mps 756 mmHg 90%
    01:00 +13°C° 1.4 mm 5 mps 756 mmHg 90%
    02:00 +13°C° 1.4 mm 4 mps 756 mmHg 90%
    03:00 +13°C° 0.3 mm 4 mps 755 mmHg 90%
    04:00 +12°C° 0.3 mm 3 mps 755 mmHg 90%
    05:00 +12°C° 0.3 mm 3 mps 755 mmHg 90%
    06:00 +13°C° 0 mm 2 mps 755 mmHg 88%
    07:00 +13°C° 0 mm 2 mps 755 mmHg 86%
    08:00 +14°C° 0 mm 1 mps 755 mmHg 84%
    09:00 +15°C° 0.1 mm 2 mps 755 mmHg 78%
    10:00 +14°C° 0.1 mm 3 mps 755 mmHg 72%
    11:00 +16°C° 0.1 mm 3 mps 755 mmHg 65%
    12:00 +15°C° 0.3 mm 4 mps 755 mmHg 66%
    13:00 +15°C° 0.3 mm 5 mps 754 mmHg 66%
    14:00 +16°C° 0.3 mm 5 mps 754 mmHg 67%
    15:00 +15°C° 0 mm 5 mps 754 mmHg 71%
    16:00 +14°C° 0 mm 4 mps 754 mmHg 76%
    17:00 +13°C° 0 mm 4 mps 754 mmHg 80%
    18:00 +13°C° 0.1 mm 3 mps 754 mmHg 81%
    19:00 +12°C° 0.1 mm 3 mps 755 mmHg 82%
    20:00 +12°C° 0.1 mm 3 mps 755 mmHg 82%
    21:00 +12°C° 0.2 mm 3 mps 755 mmHg 82%
    22:00 +12°C° 0.2 mm 3 mps 755 mmHg 82%
    23:00 +13°C° 0.2 mm 3 mps 755 mmHg 82%

    Tomorrow, 21 November, Thursday

    Time Temperature Precipitation Wind Pressure Humidity
    00:00 +14°C° 0.1 mm 2 mps 755 mmHg 82%
    01:00 +13°C° 0.1 mm 2 mps 755 mmHg 82%
    02:00 +13°C° 0.1 mm 1 mps 755 mmHg 82%
    03:00 +14°C° 0.2 mm 1 mps 754 mmHg 83%
    04:00 +14°C° 0.2 mm 1 mps 754 mmHg 84%
    05:00 +14°C° 0.2 mm 2 mps 754 mmHg 85%
    06:00 +14°C° 0.2 mm 2 mps 754 mmHg 85%
    07:00 +14°C° 0.2 mm 2 mps 754 mmHg 84%
    08:00 +14°C° 0.2 mm 3 mps 755 mmHg 84%
    09:00 +14°C° 0.2 mm 3 mps 755 mmHg 79%
    10:00 +16°C° 0.2 mm 3 mps 755 mmHg 73%
    11:00 +17°C° 0.2 mm 3 mps 754 mmHg 68%
    12:00 +17°C° 0.1 mm 3 mps 754 mmHg 68%
    13:00 +17°C° 0.1 mm 3 mps 754 mmHg 68%
    14:00 +17°C° 0.1 mm 3 mps 754 mmHg 68%
    15:00 +16°C° 0.1 mm 3 mps 754 mmHg 72%
    16:00 +14°C° 0.1 mm 3 mps 754 mmHg 76%
    17:00 +14°C° 0.1 mm 3 mps 754 mmHg 80%
    18:00 +14°C° 0 mm 3 mps 754 mmHg 82%
    19:00 +13°C° 0 mm 3 mps 754 mmHg 84%
    20:00 +13°C° 0 mm 3 mps 754 mmHg 86%
    21:00 +13°C° 0 mm 5 mps 753 mmHg 85%
    22:00 +14°C° 0 mm 6 mps 753 mmHg 85%
    23:00 +14°C° 0 mm 7 mps 752 mmHg 85%

    Day after tomorrow, 22 November, Friday

    Time Temperature Precipitation Wind Pressure Humidity
    00:00 +13°C° 0.2 mm 8 mps 752 mmHg 85%
    01:00 +15°C° 0.2 mm 9 mps 751 mmHg 86%
    02:00 +14°C° 0.2 mm 10 mps 751 mmHg 86%
    03:00 +16°C° 0.3 mm 11 mps 750 mmHg 86%
    04:00 +15°C° 0.3 mm 12 mps 749 mmHg 86%
    05:00 +15°C° 0.3 mm 12 mps 748 mmHg 86%
    06:00 +15°C° 0.9 mm 13 mps 748 mmHg 87%
    07:00 +17°C° 0.9 mm 13 mps 748 mmHg 88%
    08:00 +17°C° 0.9 mm 13 mps 747 mmHg 88%
    09:00 +17°C° 1 mm 12 mps 748 mmHg 84%
    10:00 +17°C° 1 mm 11 mps 748 mmHg 79%
    11:00 +17°C° 1 mm 10 mps 748 mmHg 74%
    12:00 +17°C° 0 mm 10 mps 748 mmHg 70%
    13:00 +17°C° 0 mm 9 mps 748 mmHg 66%
    14:00 +17°C° 0 mm 9 mps 748 mmHg 61%
    15:00 +16°C° 0.1 mm 9 mps 749 mmHg 65%
    16:00 +16°C° 0.1 mm 8 mps 749 mmHg 69%
    17:00 +15°C° 0.1 mm 8 mps 750 mmHg 73%
    18:00 +15°C° 0.1 mm 8 mps 750 mmHg 74%
    19:00 +15°C° 0.1 mm 9 mps 750 mmHg 75%
    20:00 +13°C° 0.1 mm 9 mps 750 mmHg 75%
    21:00 +13°C° 0.1 mm 10 mps 751 mmHg 74%
    22:00 +13°C° 0.1 mm 10 mps 751 mmHg 72%
    23:00 +13°C° 0.1 mm 11 mps 751 mmHg 71%

    23 November, Saturday

    Time Temperature Precipitation Wind Pressure Humidity
    00:00 +13°C° 0.2 mm 11 mps 752 mmHg 69%
    01:00 +12°C° 0.2 mm 11 mps 752 mmHg 68%
    02:00 +12°C° 0.2 mm 10 mps 752 mmHg 66%
    03:00 +12°C° 0 mm 10 mps 753 mmHg 68%
    04:00 +11°C° 0 mm 9 mps 753 mmHg 71%
    05:00 +11°C° 0 mm 8 mps 754 mmHg 73%
    06:00 +11°C° 0.1 mm 7 mps 754 mmHg 72%
    07:00 +12°C° 0.1 mm 7 mps 755 mmHg 71%
    08:00 +13°C° 0.1 mm 6 mps 756 mmHg 69%
    09:00 +14°C° 0.1 mm 6 mps 757 mmHg 65%
    10:00 +14°C° 0.1 mm 6 mps 757 mmHg 60%
    11:00 +15°C° 0.1 mm 7 mps 758 mmHg 56%
    12:00 +15°C° 0 mm 6 mps 758 mmHg 55%
    13:00 +15°C° 0 mm 6 mps 758 mmHg 55%
    14:00 +15°C° 0 mm 6 mps 758 mmHg 54%
    15:00 +14°C° 0 mm 6 mps 758 mmHg 60%
    16:00 +13°C° 0 mm 6 mps 758 mmHg 66%
    17:00 +12°C° 0 mm 5 mps 759 mmHg 71%
    18:00 +12°C° 0 mm 5 mps 759 mmHg 73%
    19:00 +12°C° 0 mm 4 mps 760 mmHg 74%
    20:00 +12°C° 0 mm 4 mps 760 mmHg 76%
    21:00 +11°C° 0 mm 3 mps 761 mmHg 77%
    22:00 +11°C° 0 mm 3 mps 761 mmHg 78%
    23:00 +12°C° 0 mm 2 mps 761 mmHg 79%

    24 November, Sunday

    Time Temperature Precipitation Wind Pressure Humidity
    00:00 +12°C° 0 mm 2 mps 761 mmHg 80%
    01:00 +11°C° 0 mm 3 mps 761 mmHg 81%
    02:00 +11°C° 0 mm 3 mps 761 mmHg 83%
    03:00 +11°C° 0 mm 3 mps 761 mmHg 83%
    04:00 +11°C° 0 mm 3 mps 762 mmHg 83%
    05:00 +11°C° 0 mm 3 mps 762 mmHg 84%
    06:00 +12°C° 0 mm 2 mps 762 mmHg 81%
    07:00 +13°C° 0 mm 2 mps 762 mmHg 78%
    08:00 +13°C° 0 mm 2 mps 763 mmHg 76%
    09:00 +15°C° 0 mm 2 mps 763 mmHg 70%
    10:00 +16°C° 0 mm 2 mps 763 mmHg 65%
    11:00 +17°C° 0 mm 2 mps 763 mmHg 59%
    12:00 +17°C° 0 mm 3 mps 763 mmHg 60%
    13:00 +17°C° 0 mm 3 mps 762 mmHg 61%
    14:00 +17°C° 0 mm 4 mps 762 mmHg 62%
    15:00 +15°C° 0 mm 4 mps 762 mmHg 67%
    16:00 +15°C° 0 mm 4 mps 762 mmHg 73%
    17:00 +14°C° 0 mm 4 mps 762 mmHg 78%
    18:00 +14°C° 0 mm 4 mps 762 mmHg 82%
    19:00 +14°C° 0 mm 4 mps 762 mmHg 85%
    20:00 +13°C° 0 mm 4 mps 763 mmHg 89%
    21:00 +14°C° 0 mm 4 mps 763 mmHg 90%
    22:00 +14°C° 0 mm 4 mps 763 mmHg 90%
    23:00 +14°C° 0 mm 4 mps 763 mmHg 91%

    25 November, Monday

    Time Temperature Precipitation Wind Pressure Humidity
    00:00 +14°C° 0 mm 4 mps 762 mmHg 92%
    01:00 +14°C° 0 mm 4 mps 762 mmHg 93%
    02:00 +14°C° 0 mm 4 mps 762 mmHg 94%
    03:00 +14°C° 0 mm 5 mps 762 mmHg 94%
    04:00 +15°C° 0 mm 5 mps 762 mmHg 94%
    05:00 +15°C° 0 mm 5 mps 761 mmHg 94%
    06:00 +15°C° 0.1 mm 5 mps 762 mmHg 93%
    07:00 +16°C° 0.1 mm 5 mps 762 mmHg 93%
    08:00 +16°C° 0.1 mm 5 mps 762 mmHg 92%
    09:00 +16°C° 0.2 mm 5 mps 762 mmHg 92%
    10:00 +17°C° 0.2 mm 6 mps 762 mmHg 92%
    11:00 +17°C° 0.2 mm 6 mps 762 mmHg 92%
    12:00 +17°C° 0.3 mm 5 mps 762 mmHg 93%
    13:00 +17°C° 0.3 mm 5 mps 762 mmHg 93%
    14:00 +17°C° 0.3 mm 5 mps 761 mmHg 94%
    15:00 +18°C° 0.5 mm 4 mps 761 mmHg 95%
    16:00 +17°C° 0.5 mm 4 mps 761 mmHg 96%
    17:00 +17°C° 0.5 mm 3 mps 761 mmHg 97%
    18:00 +17°C° 0.1 mm 3 mps 761 mmHg 97%
    19:00 +17°C° 0.1 mm 2 mps 762 mmHg 97%
    20:00 +16°C° 0.1 mm 2 mps 762 mmHg 97%
    21:00 +16°C° 0.1 mm 2 mps 762 mmHg 97%
    22:00 +17°C° 0.1 mm 2 mps 761 mmHg 97%
    23:00 +17°C° 0.1 mm 3 mps 761 mmHg 97%
    Show more